Simultaneous Nadir Overpasses (SNOs) Predictions

Prediction of SNOs between GOES-15 and METOP-A Satellite Orbit:

Table of predicted SNOs for the next 14.0 days since TLE Epoch: 12/20/2015
Index Date Time (GOES-15) GOES-15 Lat,Lon METOP-A Lat,Lon Distance(km) Time Diff (sec)
1 12/20/2015 06:19:06 0.12,-135.05 0.57,-133.06 226.74 80
2 12/21/2015 18:37:59 -0.10,-135.03 0.49,-137.61 294.34 80
3 12/22/2015 18:20:00 -0.11,-135.00 -0.65,-132.62 270.74 80
4 12/24/2015 06:39:00 0.09,-134.90 -0.40,-137.21 262.70 80
5 12/25/2015 06:15:41 0.10,-134.86 0.68,-132.21 301.66 80
6 12/26/2015 18:34:34 -0.08,-134.83 0.32,-136.77 220.74 80
7 12/27/2015 18:16:35 -0.09,-134.79 -0.76,-131.77 343.95 80
8 12/29/2015 06:35:35 0.07,-134.69 -0.28,-136.36 189.59 80
9 12/30/2015 06:12:16
